Location: Godzisko
(49.9648°N, 19.4576°E)
Time: 03:23:55
(UTC+00:00)

MSX - Pass Details

Date: 20 April 2021
Orbit: 895 x 905 km, 98.8° (Epoch: 15 May)

Event Time Altitude Azimuth Distance (km) Brightness Sun altitude
Rises 02:47:52 0° 10° (N) 3,529 7.6 -8.4°
Reaches altitude 10° 02:50:24 10° 4° (N) 2,586 6.7 -8.0°
Maximum altitude 02:55:45 42° 296° (WNW) 1,269 4.4 -7.2°
Drops below altitude 10° 03:01:06 10° 227° (SW) 2,577 5.6 -6.5°
Enters shadow 03:02:09 - 224° (SW) 2,964 5.9 -6.3°
